#timestamp,LO_Frequency,Hit,StdDev 
1571115615.7,286046996.1,N
1571115635.6,286046993.7,N
1571115655.4,286046994.5,N
1571115675.3,286046994.4,N
1571115695.1,286046992.2,N
1571115696.0,286046992.2,N
1571115715.8,286046992.2,N
1571115735.7,286046994.0,N
1571115755.5,286046994.7,N
1571115775.3,286046994.6,N
1571115795.2,286046993.4,N
1571115815.0,286046993.8,N
1571115815.9,286046993.8,N
1571115835.8,286046994.1,N
1571115855.6,286046992.1,Y
1571115875.4,286046996.9,P
1571115895.3,286046999.2,N
1571115915.1,286046999.4,N
1571115935.9,286046996.5,N
1571115955.7,286046996.5,N
1571115975.5,286046997.7,N
1571115995.4,286046995.4,Y
1571116015.2,286046996.9,P
1571116035.0,286046998.0,P
1571116035.9,286046998.0,P
1571116055.8,286046997.5,Y
1571116075.6,286046996.6,P
1571116095.5,286046996.7,P
1571116115.3,286046996.7,P
1571116135.1,286046996.8,Y
1571116155.9,286046999.7,P
1571116175.7,286047002.6,N
1571116195.6,286047002.2,N
1571116215.4,286047001.5,N
1571116235.2,286047002.3,N
1571116255.1,286047000.5,N
1571116256.0,286047000.5,N
1571116275.8,286047002.5,N
1571116295.6,286046999.7,N
1571116315.5,286047001.9,N
1571116335.3,286047004.0,N
1571116355.2,286047003.7,N
1571116375.9,286047001.8,N
1571116395.7,286047001.5,N
1571116415.6,286047002.1,N
1571116435.4,286047001.9,N
1571116455.2,286047000.3,N
1571116475.1,286047000.1,N
1571116476.0,286047000.1,N
1571116495.8,286047001.5,N
1571116515.7,286047002.0,N
1571116535.5,286047004.0,N
1571116555.3,286047004.4,N
1571116575.2,286047002.1,N
1571116595.0,286046999.7,N
1571116595.9,286046999.7,N
1571116615.8,286047004.4,N
1571116635.6,286047002.3,N
1571116655.4,286047000.3,N
1571116675.3,286047001.8,N
1571116695.1,286047003.6,N
1571116715.9,286047005.2,Y
1571116735.7,286047003.5,P
1571116755.5,286047005.6,P
1571116775.4,286047004.7,P
1571116795.2,286047004.8,Y
1571116815.0,286047002.5,P
1571116815.9,286047002.5,P
1571116835.8,286047001.0,N
1571116855.6,286047002.4,N
1571116875.5,286047000.8,N
1571116895.3,286046998.6,N
1571116915.1,286046999.0,N
1571116935.9,286046999.3,N
1571116955.7,286046998.3,N
1571116975.6,286046998.2,N
1571116995.4,286046997.4,N
1571117015.2,286046995.4,N
1571117035.1,286046993.8,N
1571117066.0,286046993.1,E
1571117075.0,286046992.0,N
1571117075.9,286046992.0,P
1571117095.8,286046996.9,P
1571117115.6,286046995.3,N
1571117135.4,286046996.4,N
1571117155.3,286046994.0,N
1571117175.1,286046994.8,N
1571117195.9,286046994.6,Y
1571117215.7,286046998.2,P
1571117235.5,286046999.2,N
1571117255.4,286046999.1,N
1571117275.2,286047000.2,N
1571117295.0,286046997.0,N
1571117295.9,286046997.0,N
1571117315.8,286046996.7,N
1571117335.6,286046998.0,N
1571117355.5,286046995.3,N
1571117375.3,286046997.5,N
1571117395.1,286046995.4,N
1571117415.9,286046995.4,N
1571117435.7,286046995.1,N
1571117455.5,286046995.4,N
1571117475.4,286046997.9,N
1571117495.2,286046995.5,N
1571117515.1,286046995.2,N
1571117516.0,286046995.2,N
1571117535.8,286046995.4,N
1571117555.6,286046995.8,N
1571117575.5,286046995.8,N
1571117595.3,286046994.2,Y
1571117615.1,286046995.6,P
1571117635.9,286046994.9,P
1571117655.7,286046997.3,P
1571117675.6,286046998.6,N
1571117695.4,286047000.5,N
1571117715.2,286047001.8,N
1571117735.1,286047003.6,N
1571117736.0,286047003.6,N
1571117755.8,286047006.0,N
1571117775.7,286047005.0,N
1571117795.5,286047007.5,N
1571117815.3,286047006.8,N
1571117835.2,286047006.9,N
1571117855.9,286047008.1,N
1571117875.7,286047007.7,N
1571117895.6,286047007.8,N
1571117915.4,286047010.3,N
1571117935.2,286047008.8,N
1571117955.1,286047006.3,N
1571117956.0,286047006.3,N
1571117975.8,286047008.7,N
1571117995.7,286047007.7,N
1571118015.5,286047007.7,N
1571118035.3,286047008.9,N
1571118055.2,286047008.2,N
1571118075.0,286047008.9,N
1571118075.9,286047008.9,N
1571118095.8,286047008.4,N
1571118115.6,286047009.0,N
1571118135.4,286047010.7,N
1571118155.3,286047009.4,N
1571118175.1,286047012.5,Y
1571118195.8,286047009.2,P
1571118215.7,286047008.9,P
1571118235.5,286047006.2,P
1571118255.4,286047006.1,Y
1571118275.2,286047000.9,P
1571118295.0,286047000.5,N
1571118295.9,286047000.5,N
1571118315.8,286047000.3,N
1571118335.6,286047001.3,N
1571118355.4,286047001.9,N
1571118375.3,286047001.6,N
1571118395.1,286047002.5,N
1571118415.9,286047004.0,N
1571118435.7,286047004.9,N
1571118455.5,286047004.7,N
1571118475.4,286047007.5,Y
1571118495.2,286047005.6,P
1571118515.0,286047006.0,P
1571118516.0,286047006.0,P
1571118535.8,286047006.0,Y
1571118555.6,286046998.5,P
1571118575.5,286046999.3,N
1571118595.3,286046996.6,N
1571118615.1,286046999.3,N
1571118635.9,286047000.8,N
1571118655.7,286047000.8,N
1571118675.6,286047002.2,N
1571118695.4,286047004.0,N
1571118715.2,286047004.7,N
1571118735.1,286047007.6,N
1571118736.0,286047007.6,N
1571118755.8,286047008.7,N
1571118775.7,286047008.4,N
1571118795.5,286047010.6,N
1571118815.3,286047011.5,N
1571118835.2,286047010.6,N
1571118855.0,286047009.9,N
1571118855.9,286047009.9,N
1571118875.7,286047007.9,N
1571118895.6,286047008.4,N
1571118915.4,286047007.8,N
1571118965.3,286047007.1,E
1571118975.2,286047004.4,N
1571118995.0,286046999.0,P
1571118996.0,286046999.0,N
1571119015.8,286046999.4,N
1571119035.6,286046996.6,N
1571119055.5,286046997.7,N
1571119075.3,286046995.3,N
1571119095.1,286046996.1,N
1571119115.9,286046996.2,N
1571119135.7,286046995.2,N
1571119155.6,286046993.5,N
1571119175.4,286046994.2,N
1571119195.2,286046992.4,N
